User: anonymous   Login
Location: Unspecified
(0.0000°N, 0.0000°E)
Time: 00:20:05
(UTC+00:00)
Language:

Picosat 4 - Orbit

View from above orbital plane
View from above orbital plane
View from above satellite
View from above satellite

Ground track
Ground track

The orbit data is extracted from the following two-line orbital elements,

1 26092U 00004K   17230.90601307  .00000099  00000-0  47075-4 0  9997
2 26092 100.1942 291.6903 0033702   0.7428 359.3801 14.43296516920768
Epoch (UTC): 18 August 2017 21:44:39
Eccentricity: 0.0033702
inclination: 100.1942°
perigee height: 723 km
apogee height: 771 km
right ascension of ascending node: 291.6903°
argument of perigee: 0.7428°
revolutions per day: 14.43296516
mean anomaly at epoch: 359.3801°
orbit number at epoch: 92076

The dashed part of the orbit path shows where the satellite is in the earth's shadow,  

DLR